This is the latest recevied weather packets stored in our database for station/object KF0DL. If no packets are shown the sender has not sent any weather packets the latest 10 day(s).
| Time | Temp. | Humidity | Pressure | Rain* | Wind** | Luminosity | Snow |
|---|---|---|---|---|---|---|---|
| 1777737207 | 17.22° C | 28% | 1016.6 hPa | 0 mm | - | - | - |
| 1777736914 | 16.67° C | 28% | 1016.6 hPa | 0 mm | - | - | - |
| 1777736601 | 16.67° C | 28% | 1016.8 hPa | 0 mm | - | - | - |
| 1777736311 | 16.11° C | 29% | 1016.8 hPa | 0 mm | - | - | - |
| 1777736017 | 16.11° C | 31% | 1016.8 hPa | 0 mm | - | - | - |
| 1777735704 | 15.56° C | 32% | 1017 hPa | 0 mm | - | - | - |
| 1777735411 | 15.56° C | 33% | 1016.1 hPa | 0 mm | - | - | - |
| 1777735118 | 15° C | 33% | 1016.1 hPa | 0 mm | - | - | - |
| 1777734805 | 14.44° C | 34% | 1016.1 hPa | 0 mm | - | - | - |
| 1777734510 | 14.44° C | 33% | 1016.6 hPa | 0 mm | - | - | - |
| 1777734218 | 13.89° C | 35% | 1016.6 hPa | 0 mm | - | - | - |
| 1777733906 | 13.33° C | 36% | 1016.6 hPa | 0 mm | - | - | - |
| 1777733617 | 12.78° C | 36% | 1017.2 hPa | 0 mm | - | - | - |
| 1777733305 | 12.78° C | 35% | 1017.2 hPa | 0 mm | - | - | - |
| 1777733012 | 12.22° C | 36% | 1017.2 hPa | 0 mm | - | - | - |
| 1777732699 | 12.22° C | 36% | 1017 hPa | 0 mm | - | - | - |
| 1777732406 | 12.22° C | 36% | 1017 hPa | 0 mm | - | - | - |
| 1777732113 | 12.22° C | 37% | 1017 hPa | 0 mm | - | - | - |
| 1777731799 | 11.67° C | 38% | 1017.4 hPa | 0 mm | - | - | - |
| 1777731509 | 11.11° C | 38% | 1017.4 hPa | 0 mm | - | - | - |
| 1777731216 | 11.11° C | 40% | 1017.4 hPa | 0 mm | - | - | - |
| 1777730908 | 10.56° C | 42% | 1017.5 hPa | 0 mm | - | - | - |
| 1777730615 | 10° C | 43% | 1017.5 hPa | 0 mm | - | - | - |
| 1777730301 | 10° C | 44% | 1017.8 hPa | 0 mm | - | - | - |
| 1777730008 | 10° C | 43% | 1017.8 hPa | 0 mm | - | - | - |
* Rain latest hour (hover to see other rain measurements)
** Current wind speed in m/s (hover to see current wind gust speed)